Weather History for New York, NY

Change the Weather History Date:

Sunday, December 4, 2011

  Actual Average Record
Temperature  
Mean Temperature 47 °F 42 °F  
Max Temperature 54 °F 48 °F 74 °F (1998)
Min Temperature 39 °F 36 °F 12 °F (1940)
Degree Days  
Heating Degree Days 18 23  
Month to date heating degree days 82 90  
Since 1 July heating degree days 704 865  
Cooling Degree Days 0 0  
Month to date cooling degree days 0 0  
Year to date cooling degree days 1375 1214  
Moisture  
Dew Point 39 °F    
Average Humidity 70    
Maximum Humidity 86    
Minimum Humidity 54    
Precipitation  
Precipitation 0.00 in 0.12 in 1.76 in (1968)
Month to date precipitation 0.00 0.50  
Year to date precipitation 61.42 41.67  
Snow  
Snow 0.00 in 0.10 in 7.50 in (1957)
Month to date snowfall 0.0 0.3  
Since 1 July snowfall 1.7 0.6  
Snow Depth 0.00 in    
Sea Level Pressure  
Sea Level Pressure 30.51 in    
Wind  
Wind Speed 5 mph (South)    
Max Wind Speed 16 mph    
Max Gust Speed 22 mph    
Visibility 10 miles    
Events      
T = Trace of Precipitation, MM = Missing Value Source: NWS Daily Summary

Daily Weather History Graph

Daily Weather History Graph

Search for Another Location

Airport:

Trip Planner

Search our weather history database for the weather conditions in past years. The results will help you decide how hot, cold, wet, or windy it might be!

Date:

Astronomy

Dec. 04, 2011 Rise Set
Actual Time 7:03 AM EST 4:28 PM EST
Civil Twilight 6:32 AM EST 4:58 PM EST
Nautical Twilight 5:58 AM EST 5:32 PM EST
Astronomical Twilight 5:25 AM EST 6:05 PM EST
Moon 12:58 PM EST (12/4) 1:24 AM EST (12/4)
Length of Visible Light 10h 26m
Length of Day
9h 24m
Waxing Gibbous, 71% of the Moon is Illuminated
Dec 4
Waxing Gibbous
Dec 10
Full
Dec 17
Last Quarter
Dec 24
New
Jan 1
First Quarter

Hourly Weather History & Observations

Time (EST) Temp. Windchill Dew Point Humidity Pressure Visibility Wind Dir Wind Speed Gust Speed Precip Events Conditions
12:51 AM 39.9 °F - 30.0 °F 68% 30.59 in 10.0 mi Calm Calm - N/A   Scattered Clouds
1:51 AM 39.0 °F - 30.0 °F 70% 30.60 in 10.0 mi Calm Calm - N/A   Scattered Clouds
2:18 AM 39.2 °F - 32.0 °F 75% 30.60 in 10.0 mi Calm Calm - N/A   Mostly Cloudy
2:47 AM 39.2 °F - 32.0 °F 75% 30.59 in 10.0 mi Calm Calm - N/A   Scattered Clouds
2:51 AM 39.9 °F - 32.0 °F 73% 30.59 in 10.0 mi Calm Calm - N/A   Scattered Clouds
3:51 AM 39.9 °F - 34.0 °F 79% 30.58 in 10.0 mi Calm Calm - N/A   Scattered Clouds
4:51 AM 42.1 °F - 35.1 °F 76% 30.57 in 10.0 mi Calm Calm - N/A   Overcast
5:51 AM 42.8 °F - 35.6 °F 76% 30.57 in 10.0 mi Calm Calm - N/A   Overcast
6:51 AM 43.0 °F 41.3 °F 37.0 °F 80% 30.57 in 8.0 mi NE 3.5 mph - N/A   Mostly Cloudy
7:51 AM 44.1 °F 41.5 °F 37.0 °F 76% 30.57 in 8.0 mi ENE 4.6 mph - N/A   Mostly Cloudy
8:51 AM 44.1 °F - 37.9 °F 79% 30.56 in 10.0 mi Calm Calm - N/A   Mostly Cloudy
9:51 AM 46.0 °F - 37.9 °F 73% 30.56 in 10.0 mi Calm Calm - N/A   Mostly Cloudy
10:51 AM 50.0 °F - 37.0 °F 61% 30.54 in 10.0 mi South 6.9 mph - N/A   Scattered Clouds
11:51 AM 52.0 °F - 37.0 °F 57% 30.51 in 10.0 mi South 12.7 mph - N/A   Scattered Clouds
12:51 PM 53.1 °F - 37.9 °F 57% 30.47 in 10.0 mi South 12.7 mph 20.7 mph N/A   Mostly Cloudy
1:51 PM 53.1 °F - 39.9 °F 61% 30.44 in 10.0 mi South 13.8 mph - N/A   Mostly Cloudy
2:51 PM 52.0 °F - 42.1 °F 69% 30.44 in 10.0 mi South 10.4 mph - N/A   Mostly Cloudy
3:51 PM 52.0 °F - 43.0 °F 71% 30.42 in 10.0 mi South 11.5 mph - N/A   Mostly Cloudy
4:51 PM 51.1 °F - 44.1 °F 77% 30.42 in 10.0 mi SSE 10.4 mph - N/A   Scattered Clouds
5:51 PM 51.1 °F - 45.0 °F 80% 30.42 in 10.0 mi South 8.1 mph - N/A   Scattered Clouds
6:51 PM 50.0 °F - 46.0 °F 86% 30.43 in 10.0 mi South 8.1 mph - N/A   Scattered Clouds
7:51 PM 50.0 °F - 46.0 °F 86% 30.43 in 10.0 mi South 6.9 mph - N/A   Scattered Clouds
8:51 PM 51.1 °F - 46.9 °F 86% 30.42 in 10.0 mi South 4.6 mph - N/A   Mostly Cloudy
9:51 PM 50.0 °F - 46.9 °F 89% 30.42 in 10.0 mi SSW 4.6 mph - N/A   Mostly Cloudy
10:51 PM 51.1 °F - 46.9 °F 86% 30.42 in 10.0 mi SW 4.6 mph - N/A   Mostly Cloudy
11:51 PM 51.1 °F - 46.9 °F 86% 30.41 in 10.0 mi South 4.6 mph - N/A   Mostly Cloudy